Weather History for Middletown, PA

Change the Weather History Date:

Sunday, September 1, 2013

  Actual Average Record
Temperature  
Mean Temperature 80 °F 71 °F  
Max Temperature 87 °F 81 °F 98 °F (1953)
Min Temperature 72 °F 62 °F 47 °F (1967)
Degree Days  
Heating Degree Days 0 0  
Month to date heating degree days 0 0  
Since 1 July heating degree days 0 2  
Cooling Degree Days 15 7  
Month to date cooling degree days 15 7  
Year to date cooling degree days 967 903  
Growing Degree Days 28 (Base 50)    
Moisture  
Dew Point 71 °F    
Average Humidity 77    
Maximum Humidity 93    
Minimum Humidity 61    
Precipitation  
Precipitation 0.01 in 0.11 in 3.60 in (1952)
Month to date precipitation 0.01 0.11  
Year to date precipitation 24.28 27.05  
Sea Level Pressure  
Sea Level Pressure 29.80 in    
Wind  
Wind Speed 3 mph (SE)    
Max Wind Speed 20 mph    
Max Gust Speed 24 mph    
Visibility 7 miles    
Events Rain , Thunderstorm    
T = Trace of Precipitation, MM = Missing Value Source: NWS Daily Summary

Daily Weather History Graph

Daily Weather History Graph

Search for Another Location

Airport:

Trip Planner

Search our weather history database for the weather conditions in past years. The results will help you decide how hot, cold, wet, or windy it might be!

Date:

Astronomy

Sep. 01, 2013 Rise Set
Actual Time 6:34 AM EDT 7:38 PM EDT
Civil Twilight 6:06 AM EDT 8:06 PM EDT
Nautical Twilight 5:33 AM EDT 8:39 PM EDT
Astronomical Twilight 4:59 AM EDT 9:13 PM EDT
Moon 2:54 AM EDT (9/1) 5:14 PM EDT (9/1)
Length of Visible Light 13h 59m
Length of Day
13h 03m
Waning Crescent, 14% of the Moon is Illuminated
Sep 1
Waning Crescent
Sep 5
New
Sep 12
First Quarter
Sep 19
Full
Sep 26
Last Quarter

Hourly Weather History & Observations

Time (EDT) Temp. Heat Index Dew Point Humidity Pressure Visibility Wind Dir Wind Speed Gust Speed Precip Events Conditions
12:56 AM 75.0 °F - 72.0 °F 90% 29.81 in 5.0 mi Calm Calm - N/A   Partly Cloudy
1:56 AM 75.0 °F - 72.0 °F 90% 29.79 in 6.0 mi ESE 4.6 mph - N/A   Scattered Clouds
2:56 AM 75.0 °F - 71.1 °F 87% 29.79 in 6.0 mi Calm Calm - N/A   Scattered Clouds
3:56 AM 73.9 °F - 72.0 °F 93% 29.78 in 6.0 mi Calm Calm - N/A   Partly Cloudy
4:56 AM 73.0 °F - 70.0 °F 90% 29.80 in 5.0 mi Calm Calm - N/A   Partly Cloudy
5:56 AM 72.0 °F - 70.0 °F 93% 29.82 in 5.0 mi North 3.5 mph - N/A   Mostly Cloudy
6:33 AM 71.6 °F - 69.8 °F 94% 29.83 in 4.0 mi Calm Calm - N/A   Mostly Cloudy
6:56 AM 72.0 °F - 70.0 °F 93% 29.82 in 3.0 mi Calm Calm - N/A   Mostly Cloudy
7:56 AM 73.9 °F - 70.0 °F 87% 29.83 in 4.0 mi Calm Calm - N/A   Mostly Cloudy
8:56 AM 75.0 °F - 70.0 °F 84% 29.83 in 6.0 mi WNW 3.5 mph - N/A   Haze
9:56 AM 77.0 °F - 70.0 °F 79% 29.84 in 7.0 mi Calm Calm - N/A   Overcast
10:56 AM 80.1 °F 83.6 °F 71.1 °F 74% 29.84 in 6.0 mi SSE 3.5 mph - N/A   Haze
11:56 AM 82.0 °F 86.3 °F 71.1 °F 69% 29.84 in 8.0 mi Calm Calm - N/A   Mostly Cloudy
12:56 PM 84.0 °F 89.6 °F 72.0 °F 67% 29.81 in 7.0 mi Calm Calm - N/A   Mostly Cloudy
1:56 PM 84.0 °F 89.0 °F 71.1 °F 65% 29.81 in 8.0 mi SE 3.5 mph - N/A   Mostly Cloudy
2:56 PM 86.0 °F 91.5 °F 71.1 °F 61% 29.79 in 9.0 mi Calm Calm - N/A   Mostly Cloudy
3:56 PM 86.0 °F 92.2 °F 72.0 °F 63% 29.78 in 8.0 mi SE 3.5 mph - N/A   Mostly Cloudy
4:56 PM 86.0 °F 93.0 °F 73.0 °F 65% 29.77 in 9.0 mi SSE 4.6 mph - N/A   Mostly Cloudy
5:56 PM 82.9 °F 88.8 °F 73.0 °F 72% 29.76 in 10.0 mi South 3.5 mph - N/A   Mostly Cloudy
6:56 PM 81.0 °F 86.2 °F 73.9 °F 79% 29.75 in 10.0 mi SE 3.5 mph - N/A   Overcast
7:56 PM 79.0 °F - 71.1 °F 77% 29.77 in 10.0 mi SE 3.5 mph - N/A   Overcast
8:56 PM 77.0 °F - 72.0 °F 84% 29.78 in 10.0 mi SE 3.5 mph - N/A Thunderstorm Thunderstorm
9:30 PM 77.0 °F - 71.6 °F 83% 29.79 in 8.0 mi ESE 3.5 mph - N/A   Overcast
9:56 PM 77.0 °F - 72.0 °F 84% 29.79 in 8.0 mi ESE 3.5 mph - N/A   Overcast
10:28 PM 78.8 °F - 73.4 °F 83% 29.80 in 8.0 mi Calm Calm - N/A Thunderstorm Thunderstorm
10:56 PM 75.0 °F - 68.0 °F 79% 29.82 in 10.0 mi NW 16.1 mph - N/A Thunderstorm Thunderstorm
11:44 PM 73.4 °F - 69.8 °F 88% 29.80 in 10.0 mi Calm Calm - 0.00 in Rain Light Rain
11:56 PM 73.0 °F - 69.1 °F 87% 29.78 in 10.0 mi East 3.5 mph - 0.01 in Rain Light Rain